logo
Games tagged Alternate History
# Game Release date
Price
Score rank
(Userscore / Metascore)
Owners
Players
Playtime (Median)
Developer(s)
Publisher(s)
1 BioShock Aug 21, 2007 N/AN/A (N/A/96%)2,000,000 .. 5,000,0000%00:00 (00:00)2K Boston, 2K Australia2K
2 BioShock Infinite Mar 25, 2013 $29.99N/A (N/A/94%)2,000,000 .. 5,000,0001.33%02:20 (01:26)Irrational Games, Virtual Programming (Linux)2K
3 Return to Castle Wolfenstein Aug 3, 2007 $4.99N/A (N/A/88%)200,000 .. 500,0000%00:00 (00:00)Gray Matter StudiosBethesda-Softworks
4 Unity of Command II Nov 12, 2019 $29.99N/A (N/A/88%)0 .. 20,000NAN%00:00 (00:00)2x2 Games, Croteam2x2 Games
5 Wolfenstein II: The New Colossus Oct 26, 2017 $39.99N/A (N/A/86%)1,000,000 .. 2,000,0006.38%04:20 (04:10)Machine GamesBethesda Softworks
6 Assassin's Creed 2 Deluxe Edition Mar 9, 2010 $19.99N/A (N/A/86%)1,000,000 .. 2,000,0000%00:00 (00:00)Ubisoft MontrealUbisoft
7 SUNLESS SKIES Jan 31, 2019 $24.99N/A (N/A/86%)100,000 .. 200,0000%00:00 (00:00)Failbetter GamesFailbetter Games
8 Hearts of Iron IV Jun 6, 2016 $39.99N/A (N/A/83%)2,000,000 .. 5,000,00014.14%07:16 (05:53)Paradox Development StudioParadox Interactive
9 Europa Universalis III Complete Jan 23, 2007 $14.99N/A (N/A/83%)200,000 .. 500,0000%00:00 (00:00)Paradox Development StudioParadox Interactive
10 Silent Storm Gold Edition Sep 9, 2004 $9.99N/A (N/A/83%)200,000 .. 500,0000%00:00 (00:00)NivalTHQ Nordic
11 Hypnospace Outlaw Mar 12, 2019 $19.99N/A (N/A/82%)50,000 .. 100,00050%02:19 (01:09)Tendershoot, Michael Lasch, ThatWhichIs MediaNo More Robots
12 Command & Conquer: Red Alert 3 Jan 8, 2009 $19.99N/A (N/A/82%)500,000 .. 1,000,0000%00:00 (00:00)EA Los AngelesElectronic Arts
13 Jamestown Jun 8, 2011 $9.99N/A (N/A/81%)500,000 .. 1,000,0000%00:00 (00:00)Final Form GamesFinal Form Games
14 The Age of Decadence Oct 14, 2015 $14.99N/A (N/A/81%)100,000 .. 200,0000%00:00 (00:00)Iron Tower StudioIron Tower Studio
15 Wolfenstein: The New Order May 19, 2014 $19.99N/A (N/A/81%)1,000,000 .. 2,000,0000.99%05:22 (01:47)Machine GamesBethesda-Soft
16 Wargame: European Escalation Feb 22, 2012 $9.99N/A (N/A/81%)500,000 .. 1,000,0000%00:00 (00:00)Eugen SystemsEugen Systems
17 Irony Curtain: From Matryoshka with Love May 16, 2019 $19.99N/A (N/A/81%)0 .. 20,000NAN%00:00 (00:00)Artifex MundiArtifex Mundi
18 BioShock Remastered Sep 15, 2016 $19.99N/A (N/A/80%)1,000,000 .. 2,000,0000%00:00 (00:00)2K Boston, 2K Australia, Blind Squirrel, Feral Interactive (Mac)2K, Feral Interactive (Mac)
19 Wargame: Airland Battle May 29, 2013 $19.99N/A (N/A/80%)500,000 .. 1,000,0000%00:00 (00:00)Eugen SystemsEugen Systems
20 Assassin’s Creed III Nov 20, 2012 N/AN/A (N/A/80%)1,000,000 .. 2,000,0000%00:00 (00:00)Ubisoft MontrealUbisoft
21 Wargame: Red Dragon Apr 17, 2014 $29.99N/A (N/A/78%)500,000 .. 1,000,0004.44%00:19 (00:12)Eugen SystemsEugen Systems
22 Herald: An Interactive Period Drama - Book I & II Feb 22, 2017 $9.99N/A (N/A/77%)0 .. 20,000NAN%00:00 (00:00)WispfireWispfire
23 Hearts of Iron III Aug 7, 2009 $9.99N/A (N/A/77%)500,000 .. 1,000,0002.86%00:13 (00:04)Paradox Development StudioParadox Interactive
24 Wolfenstein: The Old Blood May 4, 2015 $19.99N/A (N/A/76%)500,000 .. 1,000,0000%00:00 (00:00)MachineGamesBethesda Softworks
25 Singularity Jun 30, 2010 $7.49N/A (N/A/76%)200,000 .. 500,0000%00:00 (00:00)Raven SoftwareActivision
26 Battlezone 98 Redux Apr 18, 2016 $19.99N/A (N/A/75%)20,000 .. 50,0000%00:00 (00:00)Big Boat InteractiveRebellion
27 Victoria II Aug 30, 2010 $19.99N/A (N/A/75%)500,000 .. 1,000,0000%00:00 (00:00)Paradox Development StudioParadox Interactive
28 Kenshi Dec 6, 2018 $29.99N/A (N/A/75%)500,000 .. 1,000,0000%00:00 (00:00)Lo-Fi GamesLo-Fi Games
29 Battlestations Pacific May 12, 2009 $8.99N/A (N/A/74%)200,000 .. 500,0000%00:00 (00:00)Eidos Studio HungarySquare Enix
30 Phantom Doctrine Aug 14, 2018 $39.99N/A (N/A/73%)100,000 .. 200,0000%00:00 (00:00)CreativeForge GamesGood Shepherd Entertainment
31 Blues and Bullets Jul 23, 2015 $4.99N/A (N/A/73%)50,000 .. 100,0000%00:00 (00:00)A Crowd of MonstersA Crowd of Monsters
32 Lamplight City Sep 13, 2018 $14.99N/A (N/A/72%)20,000 .. 50,000NAN%00:00 (00:00)Grundislav GamesApplication Systems Heidelberg
33 All Walls Must Fall - A Tech-Noir Tactics Game Feb 23, 2018 $4.99N/A (N/A/72%)0 .. 20,000NAN%00:00 (00:00)inbetweengamesinbetweengames
34 TimeShift Jul 23, 2009 $9.99N/A (N/A/71%)100,000 .. 200,0000%00:00 (00:00)Saber InteractiveActivision
35 Not Tonight Aug 17, 2018 $19.99N/A (N/A/71%)20,000 .. 50,0000%00:00 (00:00)PanicBarnNo More Robots
36 Moons of Madness Oct 22, 2019 $24.99N/A (N/A/69%)20,000 .. 50,000NAN%00:00 (00:00)Rock Pocket GamesFuncom
37 Iron Storm Oct 25, 2002 $2.99N/A (N/A/69%)20,000 .. 50,0000%00:00 (00:00)MicroidsMicroids
38 Wolfenstein: Youngblood Jul 25, 2019 $29.99N/A (N/A/69%)200,000 .. 500,00011.11%12:19 (04:06)Machine Games, Arkane StudiosBethesda Softworks
39 The Church in the Darkness Aug 2, 2019 $19.99N/A (N/A/65%)0 .. 20,0000%00:00 (00:00)Paranoid ProductionsFellow Traveller
40 NecroVision May 20, 2009 $4.99N/A (N/A/63%)100,000 .. 200,0000%00:00 (00:00)The Farm 511C Entertainment
41 The Descendant Mar 24, 2016 $14.99N/A (N/A/59%)200,000 .. 500,0001.31%01:23 (01:00)Gaming Corps ABMicroids Indie, Microids
42 EMPYRE: Lords of the Sea Gates Oct 4, 2017 $29.99N/A (N/A/56%)0 .. 20,000NAN%00:00 (00:00)Coin Operated GamesCoin Operated Games, Work Shift Play Inc.
43 Bohemian Killing Jul 21, 2016 $12.99N/A (N/A/55%)0 .. 20,0000%00:00 (00:00)The MoonwallsLibredia Entertainment
44 Wolfenstein: Cyberpilot Jul 25, 2019 $19.99N/A (N/A/54%)0 .. 20,0000%00:00 (00:00)Arkane Studios, Machine GamesBethesda Softworks
45 Dino D-Day Apr 8, 2011 $9.99N/A (N/A/53%)1,000,000 .. 2,000,0000%00:00 (00:00)800 North and Digital Ranch800 North and Digital Ranch
46 Darkest of Days Sep 2009 $19.99N/A (N/A/51%)20,000 .. 50,0000%00:00 (00:00)8monkey LabsPhantom EFX
47 Aurora - Hidden Colors Dec 13, 2019 $3.99N/A (N/A)0 .. 20,000NAN%00:00 (00:00)Aurora - Mídia & GamesAurora - Mídia & Games
48 Ymir Mar 16, 2019 $34.99N/A (N/A)20,000 .. 50,000NAN%00:00 (00:00)Thibaud MichaudThibaud Michaud
49 Blood Bond - Into the Shroud Feb 27, 2019 $24.99N/A (N/A)0 .. 20,000NAN%00:00 (00:00)W.R.K.S GamesW.R.K.S Games
50 Age of Civilizations II Nov 21, 2018 $4.99N/A (N/A)200,000 .. 500,00016.67%08:44 (02:54)Łukasz JakowskiŁukasz Jakowski Games
51 Tombeaux Nov 5, 2018 $4.99N/A (N/A)0 .. 20,000NAN%00:00 (00:00)Dave BeckDave Beck
52 Iron Harvest Sep 1, 2020 N/AN/A (N/A)0 .. 20,0000%00:00 (00:00)KING ArtDeep Silver
53 Headliner: NoviNews Oct 23, 2018 $13.99N/A (N/A)0 .. 20,000NAN%00:00 (00:00)Unbound CreationsUnbound Creations
54 HENTAI - World War II Jan 13, 2020 $1.99N/A (N/A)20,000 .. 50,0000%00:00 (00:00)Konnichiwa GamesKonnichiwa Games
55 Death Trader: Cold War Oct 19, 2018 $17.99N/A (N/A)0 .. 20,000NAN%00:00 (00:00)DreambakersDreambakers
56 Singularity: Tactics Arena Dec 17, 2019 $9.99N/A (N/A)0 .. 20,000NAN%00:00 (00:00)A Memory of Eternity LLCA Memory of Eternity LLC
57 Shadow Council: The Puppeteers Jun 21, 2018 $19.99N/A (N/A)0 .. 20,000NAN%00:00 (00:00)DreambakersDreambakers
58 Imperialism: Fate of India Aug 10, 2018 $17.99N/A (N/A)0 .. 20,000NAN%00:00 (00:00)GamenesisGamenesis
59 Long Gone Days Mar 28, 2018 $14.99N/A (N/A)0 .. 20,000NAN%00:00 (00:00)BURABURA
60 Intelligence Trader Aug 3, 2018 $11.99N/A (N/A)0 .. 20,000NAN%00:00 (00:00)DreambakersDreambakers
61 Ostalgie: The Berlin Wall Mar 25, 2018 $5.99N/A (N/A)20,000 .. 50,0000%00:00 (00:00)KremlingamesKremlingames
62 End War RTS Aug 1, 2018 $7.99N/A (N/A)0 .. 20,000NAN%00:00 (00:00)AuroraAurora
63 Aces of the Luftwaffe - Squadron Jul 24, 2018 $14.99N/A (N/A)0 .. 20,0000%00:00 (00:00)HandyGamesHandyGames
64 Scythe: Digital Edition Sep 5, 2018 $19.99N/A (N/A)50,000 .. 100,0000%00:00 (00:00)The Knights of UnityAsmodee Digital
65 Because We're Here ~Mohnblume und Blauerose~ Act I Jul 19, 2018 $5.99N/A (N/A)0 .. 20,000NAN%00:00 (00:00)Studio ElfriedeStudio Elfriede
66 Age of Gladiators II: Rome Aug 21, 2018 $19.99N/A (N/A)0 .. 20,000NAN%00:00 (00:00)Creative Storm EntertainmentCreative Storm Entertainment
67 Chronicles of Vinland May 23, 2018 $19.99N/A (N/A)0 .. 20,000NAN%00:00 (00:00)Wonderbox GamesWonderbox Games
68 Third Front: WWII Apr 6, 2018 $7.99N/A (N/A)20,000 .. 50,0000%00:00 (00:00)Hamsters GamingHamsters Gaming
69 Pendula Swing Episode 1 - Tired and Retired Aug 15, 2018 FreeN/A (N/A)0 .. 20,000NAN%00:00 (00:00)Valiant Game Studio ABValiant Game Studio AB
70 Panzer Hearts - War Visual Novel Apr 25, 2018 FreeN/A (N/A)0 .. 20,0000%00:00 (00:00)HELYEESHELYEES
71 Steampunk Tower 2 Apr 19, 2018 $7.99N/A (N/A)20,000 .. 50,0000%00:00 (00:00)DreamGateDreamGate
72 Call of War Oct 21, 2017 FreeN/A (N/A)100,000 .. 200,0000%00:00 (00:00)Bytro Labs GmbHBytro Labs GmbH
73 Tragedy of Prince Rupert Jul 26, 2017 $3.99N/A (N/A)0 .. 20,0000%00:00 (00:00)SpytihněvSpytihněv
74 Boom Island Oct 16, 2017 $0.99N/A (N/A)0 .. 20,0000%00:00 (00:00)Caden Goodwincsgood
75 IKEA VR Pancake Kitchen May 30, 2017 FreeN/A (N/A)100,000 .. 200,0000%00:00 (00:00)IKEA Communications ABIKEA Communications AB
76 Arms Race - TCWE Oct 5, 2017 $14.99N/A (N/A)0 .. 20,000NAN%00:00 (00:00)Alina DigitalAlina Digital
77 Cruz Brothers Mar 13, 2018 $9.99N/A (N/A)0 .. 20,000NAN%00:00 (00:00)DCF StudiosDCF Studios
78 CONFLICT OF NATIONS: WORLD WAR 3 Mar 15, 2018 FreeN/A (N/A)100,000 .. 200,000NAN%00:00 (00:00)Dorado GamesDorado Games
79 Darkarta: A Broken Heart's Quest Standard Edition Aug 28, 2017 $5.99N/A (N/A)0 .. 20,000NAN%00:00 (00:00)Tuttifrutti InteractiveTuttifrutti Interactive
80 a Museum of Dubious Splendors Mar 6, 2018 FreeN/A (N/A)20,000 .. 50,0000%00:00 (00:00)Studio OleomingusThe Irregular Corporation
81 Strategy & Tactics: Dark Ages Aug 4, 2017 $14.99N/A (N/A)50,000 .. 100,0000%00:00 (00:00)HeroCraftHeroCraft
82 Anti Zombie AI - Tower Defense (Azai - TD) Aug 4, 2017 $1.99N/A (N/A)0 .. 20,000NAN%00:00 (00:00)PodShoh StudioPodShoh Studio
83 PAWARUMI Jan 30, 2018 $14.99N/A (N/A)0 .. 20,0000%00:00 (00:00)Manufacture 43Manufacture 43
84 Supreme Ruler The Great War Aug 1, 2017 $19.99N/A (N/A)0 .. 20,0000%00:00 (00:00)BattleGoat StudiosBattleGoat Studios
85 Project First Contact Jul 26, 2017 $0.5N/A (N/A)0 .. 20,0000%00:00 (00:00)Cristian Manolachi, Atomic FabrikCristian Manolachi, Atomic Fabrik
86 Lost in Secular Love Oct 28, 2016 $9.99N/A (N/A)0 .. 20,000NAN%00:00 (00:00)YETU GAMEYETU GAME
87 Pharaonic Apr 28, 2016 $14.99N/A (N/A)20,000 .. 50,0000%00:00 (00:00)Milkstone StudiosMilkstone Studios
88 BioShock 2 Remastered Sep 15, 2016 $19.99N/A (N/A)500,000 .. 1,000,0000%00:00 (00:00)2K Marin, 2K China, Digital Extremes, 2K Australia, Blind Squirrel2K
89 Interkosmos Apr 25, 2017 $4.99N/A (N/A)0 .. 20,0000%00:00 (00:00)Ovid WorksOvid Works
90 The Cold War Era Sep 9, 2016 $4.99N/A (N/A)0 .. 20,000NAN%00:00 (00:00)Alina DigitalAlina Digital
91 Crisis in the Kremlin Mar 20, 2017 $4.99N/A (N/A)100,000 .. 200,0000%00:00 (00:00)KremlingamesKremlingames
92 Steam Squad Jul 28, 2016 $17.99N/A (N/A)20,000 .. 50,000NAN%00:00 (00:00)Bretwalda GamesBretwalda Games
93 Darkarta: A Broken Heart's Quest Collector's Edition Mar 8, 2017 $9.99N/A (N/A)50,000 .. 100,0000%00:00 (00:00)Tuttifrutti InteractiveTuttifrutti Interactive
94 FreeHolder Jul 5, 2016 $4.99N/A (N/A)0 .. 20,0000%00:00 (00:00)RogueWareRogueWare
95 Greenwood the Last Ritual Jan 19, 2017 $2.99N/A (N/A)100,000 .. 200,0000%00:00 (00:00)AO2GameAO2Game
96 The Temporal Invasion Jul 4, 2016 $6.99N/A (N/A)20,000 .. 50,0000%00:00 (00:00)Hybriona LabsHybriona Labs
97 Disgraced Jun 20, 2016 $9.99N/A (N/A)0 .. 20,000NAN%00:00 (00:00)Corrosive Studios LLCCorrosive Studios LLC
98 Dino Eggs: Rebirth Jun 8, 2016 $9.99N/A (N/A)0 .. 20,0000%00:00 (00:00)David H Schroeder, Eric FerrotDavid H Schroeder
99 Saboteur II: Avenging Angel Aug 2, 2019 $7.99N/A (N/A)0 .. 20,000NAN%00:00 (00:00)SimFabric, Clive TownsendSimFabric
100 HEIST Sep 27, 2019 $18.99N/A (N/A)0 .. 20,000NAN%00:00 (00:00)Atomizer GamesAtomizer Games
101 Rick Rack Jul 31, 2019 $8.99N/A (N/A)0 .. 20,000NAN%00:00 (00:00)IronVishwaKarma
102 I Love You, Colonel Sanders! A Finger Lickin’ Good Dating Simulator Sep 24, 2019 FreeN/A (N/A)100,000 .. 200,000NAN%00:00 (00:00)PsyopKFC
103 Bloody Chronicles - New Cycle of Death Visual Novel Aug 1, 2019 $24.99N/A (N/A)0 .. 20,000NAN%00:00 (00:00)Igrasil Development TeamIgrasil Studio
104 In the beginning Sep 7, 2019 $9.99N/A (N/A)0 .. 20,000NAN%00:00 (00:00)Solare GamesSolare Games
105 World War Zero Oct 25, 2002 $4.99N/A (N/A)0 .. 20,000NAN%00:00 (00:00)RebellionRebellion
106 Last Day of Rome Sep 6, 2019 $11.99N/A (N/A)0 .. 20,000NAN%00:00 (00:00)Hamsters GamingHamsters Gaming
107 macdows 95 Sep 5, 2019 $0.99N/A (N/A)0 .. 20,000NAN%00:00 (00:00)Yunus AyyildizYunus Ayyildiz
108 BEARS, VODKA, BALALAIKA! Nov 6, 2019 $1.99N/A (N/A)20,000 .. 50,0000%00:00 (00:00)Rabotiagi gamesRabotiagi games
109 Overpass Aug 15, 2019 $14.99N/A (N/A)0 .. 20,000NAN%00:00 (00:00)Studio BeanStudio Bean
110 TUTUTUTU - Tea party Aug 14, 2019 $15.99N/A (N/A)0 .. 20,000NAN%00:00 (00:00)Marginal actMarginal act
111 BDSM: Big Drunk Satanic Massacre Oct 10, 2019 $19.99N/A (N/A)20,000 .. 50,00050%00:46 (00:23)Big Way GamesBig Way Games
112 Taste of Power Oct 10, 2019 $14.99N/A (N/A)0 .. 20,000NAN%00:00 (00:00)OneOcean LLCOneOcean LLC
113 Supreme Ruler Ultimate Oct 17, 2014 $19.99N/A (N/A)50,000 .. 100,0000%00:00 (00:00)BattleGoat StudiosBattleGoat Studios
114 Hegemony III: Clash of the Ancients Aug 25, 2015 $29.99N/A (N/A)20,000 .. 50,000NAN%00:00 (00:00)Longbow GamesLongbow Games
115 I Shall Remain Aug 24, 2015 $9.99N/A (N/A)20,000 .. 50,0000%00:00 (00:00)Scorpius GamesScorpius Games
116 Strategy & Tactics: Wargame Collection Apr 22, 2016 $9.99N/A (N/A)50,000 .. 100,0000%00:00 (00:00)HeroCraftHeroCraft
117 Dark Storm: VR Missions Aug 19, 2015 N/AN/A (N/A)0 .. 20,000NAN%00:00 (00:00)Fenrir StudiosFenrir Studios
118 Colonial Conquest Jul 28, 2015 $9.99N/A (N/A)20,000 .. 50,0000%00:00 (00:00)Argonauts Interactive, Collectif NemoïdPlug In Digital, Argonauts Interactive
119 Karaski: What Goes Up... Mar 2, 2016 $11.99N/A (N/A)0 .. 20,000NAN%00:00 (00:00)Unbound CreationsPlug In Digital
120 Deadlands Noir - That Old Time Religion Jul 3, 2015 $1.99N/A (N/A)0 .. 20,0000%00:00 (00:00)SmiteWorks USA, LLCSmiteWorks USA, LLC
121 Age of Gladiators Feb 25, 2016 $9.99N/A (N/A)50,000 .. 100,0000%00:00 (00:00)Creative Storm EntertainmentCreative Storm Entertainment
122 Super 3-D Noah's Ark Jan 1, 1995 $4.99N/A (N/A)50,000 .. 100,0000%00:00 (00:00)Wisdom Tree, Inc.Piko Interactive LLC, Classics Digital
123 Turnover Dec 15, 2015 $4.99N/A (N/A)0 .. 20,000NAN%00:00 (00:00)Long Division LLCLong Division LLC
124 Command & Conquer: Red Alert 3 - Uprising Mar 12, 2009 $19.99N/A (N/A)1,000,000 .. 2,000,0000%00:00 (00:00)EA Los AngelesElectronic Arts
125 Generals & Rulers May 31, 2019 $11.99N/A (N/A)0 .. 20,000NAN%00:00 (00:00)Hamsters GamingHamsters Gaming
126 The Great Fantasy Struggle Sep 26, 2018 $9.99N/A (N/A)0 .. 20,000NAN%00:00 (00:00)Alina DigitalAlina Digital
127 China: Mao's legacy May 24, 2019 $6.99N/A (N/A)0 .. 20,0000%00:00 (00:00)KremlingamesKremlingames
128 Age of Viking Conquest Sep 19, 2018 $4.99N/A (N/A)0 .. 20,000NAN%00:00 (00:00)Nemoïd AppsArgonauts Interactive
129 Precipice May 1, 2019 $7.99N/A (N/A)0 .. 20,000NAN%00:00 (00:00)LRDGames, Inc.LRDGames, Inc.
130 Rogue Reaper Feb 1, 2019 FreeN/A (N/A)50,000 .. 100,000NAN%00:00 (00:00)Fireroot StudiosFireroot Studios
131 KILL la KILL -IF Jul 25, 2019 $39.99N/A (N/A)0 .. 20,000NAN%00:00 (00:00)Arc System Works, APLUS Co., Ltd.Arc System Works
132 局外人 L'Etranger Jul 17, 2019 FreeN/A (N/A)0 .. 20,000NAN%00:00 (00:00)Class-2Class-2
133 Corrupt The Priest Dec 14, 2018 $3.99N/A (N/A)0 .. 20,000NAN%00:00 (00:00)DreambakersDreambakers
134 Supremacy 1914 Jul 16, 2019 FreeN/A (N/A)50,000 .. 100,000NAN%00:00 (00:00)Bytro Labs GmbHBytro Labs GmbH
135 Evil Bank Manager Dec 8, 2018 $11.99N/A (N/A)20,000 .. 50,000NAN%00:00 (00:00)Hamsters GamingHamsters Gaming
136 Master Of Secrets: Dark Europe Jun 25, 2019 $3.99N/A (N/A)0 .. 20,000NAN%00:00 (00:00)Paradox BagParadox Bag
Overview

Alternate History

Games with this tag: 136
Average userscore: N/A%
Average metascore: 75.22%
Average playtime: 04:07
Total copies owned: 35,187,000
Average price: $14.01
Help

Owners: Estimated number of people owning this game. The number might be way too small for new releases and sometimes way too big for games that had free weekend event recently. Read more on About page.

Playtime: Average hours played in total per person that have actually launched this game since March 2009. This time is calculated for the whole lifetime, not for the particular year.

Average score: Average users and metacritic score for all games with this score assigned.

Average playtime: Average lifetime playtime for all games where this data is available.

Games in this genre: Self-explaining - number of games with this tag. Only inculdes games with sales data available.

Total copies owned: Refers to total copies of games with this tag acquired by users for the lifetime. Includes copies sold, downloaded for free and given out.

This number might be too small for recently released games or too big for games that had a free weekend in the last couple of months.

Graphs

Login required.

Please register or log in to see this information.

Login required.

Please register or log in to see this information.